EZY212 EGCC-EGAC

Flight info

Callsign EZY212
Flight time 0h 32m
Altitude 24000
Route ASMIM L975 WAL M146 ERDUV Z198 MASOP
Aircraft A20N/M-SDE2E3FGHIRWXY/LB1

Departure

Time 2026-04-23 16:22
Airport Manchester Airport (EGCC)

Arrival

Time 2026-04-23 16:55
Airport George Best Belfast City Airport (EGAC)
Time Latitude Longitude Altitude Speed Heading
2026-04-23 15:34 53.36947 -2.28694 232 ft 0 kts 134°
2026-04-23 16:07 53.36950 -2.28699 232 ft 1 kts 134°
2026-04-23 16:07 53.36955 -2.28708 252 ft 1 kts 134°
2026-04-23 16:07 53.36960 -2.28717 255 ft 1 kts 141°
2026-04-23 16:08 53.36967 -2.28725 227 ft 1 kts 152°
2026-04-23 16:08 53.36978 -2.28734 232 ft 2 kts 173°
2026-04-23 16:08 53.36987 -2.28735 237 ft 1 kts 193°
2026-04-23 16:08 53.36995 -2.28731 236 ft 1 kts 218°
2026-04-23 16:09 53.36995 -2.28730 236 ft 0 kts 218°
2026-04-23 16:10 53.36994 -2.28731 232 ft 1 kts 218°
2026-04-23 16:10 53.36978 -2.28757 236 ft 6 kts 225°
2026-04-23 16:11 53.36930 -2.28841 234 ft 13 kts 226°
2026-04-23 16:11 53.36880 -2.28924 235 ft 9 kts 225°
2026-04-23 16:11 53.36816 -2.29015 232 ft 11 kts 207°
2026-04-23 16:11 53.36746 -2.29038 234 ft 12 kts 152°
2026-04-23 16:12 53.36707 -2.28979 232 ft 3 kts 134°
2026-04-23 16:12 53.36671 -2.28916 236 ft 12 kts 141°
2026-04-23 16:12 53.36594 -2.28831 234 ft 14 kts 115°
2026-04-23 16:12 53.36533 -2.28674 235 ft 17 kts 134°
2026-04-23 16:13 53.36453 -2.28532 234 ft 14 kts 134°
2026-04-23 16:13 53.36303 -2.28434 232 ft 14 kts 133°
2026-04-23 16:13 53.36232 -2.28310 234 ft 16 kts 134°
2026-04-23 16:14 53.36158 -2.28186 232 ft 14 kts 135°
2026-04-23 16:14 53.36089 -2.28066 235 ft 15 kts 133°
2026-04-23 16:14 53.36017 -2.27942 235 ft 7 kts 135°
2026-04-23 16:14 53.36008 -2.27927 234 ft 0 kts 134°
2026-04-23 16:15 53.36001 -2.27916 232 ft 3 kts 134°
2026-04-23 16:15 53.35977 -2.27876 232 ft 7 kts 137°
2026-04-23 16:15 53.35925 -2.27847 232 ft 10 kts 180°
2026-04-23 16:15 53.35846 -2.27859 234 ft 13 kts 185°
2026-04-23 16:16 53.35745 -2.27877 232 ft 16 kts 186°
2026-04-23 16:16 53.35633 -2.27903 234 ft 14 kts 203°
2026-04-23 16:16 53.35566 -2.28026 232 ft 15 kts 231°
2026-04-23 16:16 53.35511 -2.28110 233 ft 11 kts 213°
2026-04-23 16:17 53.35427 -2.28159 233 ft 15 kts 188°
2026-04-23 16:17 53.35300 -2.28216 233 ft 20 kts 208°
2026-04-23 16:17 53.35196 -2.28373 234 ft 22 kts 232°
2026-04-23 16:17 53.35104 -2.28567 235 ft 22 kts 231°
2026-04-23 16:18 53.35004 -2.28761 232 ft 19 kts 226°
2026-04-23 16:18 53.34901 -2.28939 232 ft 20 kts 226°
2026-04-23 16:18 53.34806 -2.29122 232 ft 23 kts 231°
2026-04-23 16:18 53.34717 -2.29293 235 ft 16 kts 223°
2026-04-23 16:19 53.34673 -2.29335 232 ft 1 kts 195°
2026-04-23 16:19 53.34635 -2.29345 233 ft 11 kts 182°
2026-04-23 16:19 53.34554 -2.29303 234 ft 10 kts 142°
2026-04-23 16:19 53.34556 -2.29188 234 ft 14 kts 54°
2026-04-23 16:20 53.34573 -2.29153 234 ft 0 kts 51°
2026-04-23 16:21 53.34577 -2.29144 232 ft 5 kts 51°
2026-04-23 16:21 53.34620 -2.29057 236 ft 17 kts 51°
2026-04-23 16:22 53.34791 -2.28701 236 ft 71 kts 51°
2026-04-23 16:22 53.35232 -2.27791 234 ft 128 kts 51°
2026-04-23 16:22 53.35835 -2.26545 571 ft 141 kts 53°
2026-04-23 16:22 53.36490 -2.25214 984 ft 156 kts 52°
2026-04-23 16:23 53.37239 -2.23750 1469 ft 171 kts 50°
2026-04-23 16:23 53.38217 -2.22595 2106 ft 179 kts 20°
2026-04-23 16:23 53.39511 -2.22593 2625 ft 201 kts 350°
2026-04-23 16:23 53.40967 -2.23210 3002 ft 229 kts 345°
2026-04-23 16:24 53.42378 -2.24520 3735 ft 237 kts 312°
2026-04-23 16:24 53.43215 -2.26775 4492 ft 221 kts 290°
2026-04-23 16:24 53.43713 -2.29231 5137 ft 225 kts 285°
2026-04-23 16:24 53.44203 -2.31699 6198 ft 221 kts 288°
2026-04-23 16:25 53.44740 -2.33990 7137 ft 223 kts 291°
2026-04-23 16:25 53.45385 -2.36375 8044 ft 226 kts 294°
2026-04-23 16:25 53.46087 -2.38761 8898 ft 233 kts 295°
2026-04-23 16:25 53.46755 -2.41354 9474 ft 253 kts 283°
2026-04-23 16:26 53.46914 -2.44395 9975 ft 273 kts 262°
2026-04-23 16:26 53.46573 -2.47617 10618 ft 286 kts 257°
2026-04-23 16:26 53.46184 -2.50995 11158 ft 306 kts 257°
2026-04-23 16:26 53.45772 -2.54632 11537 ft 328 kts 257°
2026-04-23 16:27 53.45345 -2.58461 12242 ft 337 kts 257°
2026-04-23 16:27 53.44916 -2.62356 13038 ft 341 kts 257°
2026-04-23 16:27 53.44482 -2.66285 13811 ft 346 kts 258°
2026-04-23 16:27 53.44044 -2.70267 14560 ft 347 kts 257°
2026-04-23 16:28 53.43602 -2.74272 15289 ft 351 kts 257°
2026-04-23 16:28 53.43152 -2.78329 16028 ft 356 kts 257°
2026-04-23 16:28 53.42696 -2.82428 16799 ft 360 kts 258°
2026-04-23 16:28 53.42232 -2.86572 17580 ft 363 kts 258°
2026-04-23 16:29 53.41764 -2.90750 18379 ft 366 kts 258°
2026-04-23 16:29 53.41296 -2.94915 19114 ft 368 kts 257°
2026-04-23 16:29 53.40812 -2.99185 19839 ft 370 kts 258°
2026-04-23 16:29 53.40330 -3.03419 20571 ft 370 kts 259°
2026-04-23 16:30 53.39927 -3.07679 21312 ft 370 kts 268°
2026-04-23 16:30 53.40144 -3.11946 22081 ft 368 kts 284°
2026-04-23 16:30 53.41062 -3.15918 22877 ft 364 kts 301°
2026-04-23 16:30 53.42581 -3.19271 23695 ft 359 kts 316°
2026-04-23 16:31 53.44351 -3.22261 24217 ft 366 kts 316°
2026-04-23 16:31 53.46178 -3.25348 24382 ft 381 kts 316°
2026-04-23 16:31 53.48081 -3.28580 24419 ft 399 kts 315°
2026-04-23 16:31 53.50061 -3.31958 24418 ft 410 kts 315°
2026-04-23 16:32 53.52057 -3.35378 24417 ft 410 kts 315°
2026-04-23 16:32 53.54045 -3.38793 24417 ft 409 kts 316°
2026-04-23 16:32 53.56037 -3.42220 24414 ft 408 kts 315°
2026-04-23 16:32 53.57960 -3.45737 24414 ft 410 kts 310°
2026-04-23 16:33 53.59647 -3.49613 24410 ft 410 kts 306°
2026-04-23 16:33 53.61290 -3.53537 24406 ft 411 kts 306°
2026-04-23 16:33 53.62947 -3.57463 24403 ft 411 kts 307°
2026-04-23 16:33 53.64601 -3.61387 24400 ft 410 kts 307°
2026-04-23 16:34 53.66249 -3.65304 24395 ft 410 kts 306°
2026-04-23 16:34 53.67902 -3.69239 24398 ft 412 kts 306°
2026-04-23 16:34 53.69556 -3.73191 24401 ft 411 kts 305°
2026-04-23 16:34 53.71176 -3.77072 24401 ft 411 kts 305°
2026-04-23 16:35 53.72821 -3.81023 24401 ft 411 kts 305°
2026-04-23 16:35 53.74462 -3.84970 24401 ft 411 kts 305°
2026-04-23 16:35 53.76101 -3.88922 24401 ft 411 kts 305°
2026-04-23 16:35 53.77743 -3.92883 24401 ft 411 kts 305°
2026-04-23 16:36 53.79380 -3.96839 24405 ft 411 kts 305°
2026-04-23 16:36 53.81018 -4.00803 24404 ft 411 kts 305°
2026-04-23 16:36 53.82656 -4.04775 24404 ft 411 kts 305°
2026-04-23 16:36 53.84291 -4.08743 24404 ft 411 kts 305°
2026-04-23 16:37 53.85958 -4.12674 24401 ft 411 kts 310°
2026-04-23 16:37 53.87993 -4.16063 24407 ft 411 kts 322°
2026-04-23 16:37 53.90409 -4.18640 24408 ft 411 kts 334°
2026-04-23 16:37 53.93063 -4.20469 24403 ft 415 kts 338°
2026-04-23 16:38 53.95777 -4.22246 24404 ft 419 kts 338°
2026-04-23 16:38 53.97615 -4.23459 24408 ft 419 kts 338°
2026-04-23 16:38 54.00280 -4.25224 24286 ft 415 kts 338°
2026-04-23 16:38 54.02956 -4.27000 23892 ft 412 kts 338°
2026-04-23 16:39 54.05624 -4.28771 23190 ft 412 kts 338°
2026-04-23 16:39 54.08290 -4.30544 22519 ft 410 kts 338°
2026-04-23 16:39 54.10932 -4.32303 21934 ft 406 kts 338°
2026-04-23 16:39 54.13518 -4.34157 21328 ft 402 kts 331°
2026-04-23 16:40 54.15834 -4.36779 20675 ft 399 kts 319°
2026-04-23 16:40 54.17780 -4.40147 20030 ft 396 kts 307°
2026-04-23 16:40 54.19464 -4.43839 19503 ft 392 kts 306°
2026-04-23 16:40 54.21138 -4.47476 19017 ft 387 kts 307°
2026-04-23 16:41 54.22806 -4.51092 18372 ft 387 kts 307°
2026-04-23 16:41 54.24452 -4.54668 17894 ft 380 kts 306°
2026-04-23 16:41 54.26081 -4.58215 17299 ft 378 kts 306°
2026-04-23 16:41 54.27695 -4.61740 16739 ft 375 kts 306°
2026-04-23 16:42 54.29295 -4.65239 16206 ft 371 kts 306°
2026-04-23 16:42 54.30877 -4.68705 15694 ft 367 kts 306°
2026-04-23 16:42 54.32443 -4.72141 15155 ft 365 kts 306°
2026-04-23 16:42 54.33997 -4.75557 14638 ft 362 kts 306°
2026-04-23 16:43 54.35519 -4.78904 14134 ft 359 kts 306°
2026-04-23 16:43 54.37050 -4.82280 13481 ft 360 kts 306°
2026-04-23 16:43 54.38580 -4.85659 12950 ft 357 kts 306°
2026-04-23 16:43 54.40094 -4.89003 12451 ft 353 kts 305°
2026-04-23 16:44 54.41591 -4.92315 11951 ft 349 kts 306°
2026-04-23 16:44 54.43072 -4.95595 11457 ft 346 kts 306°
2026-04-23 16:44 54.44539 -4.98851 10981 ft 343 kts 306°
2026-04-23 16:44 54.45983 -5.02056 10727 ft 332 kts 306°
2026-04-23 16:45 54.47367 -5.05130 10596 ft 319 kts 305°
2026-04-23 16:45 54.48696 -5.08085 10478 ft 305 kts 305°
2026-04-23 16:45 54.49966 -5.10913 10313 ft 294 kts 305°
2026-04-23 16:45 54.51211 -5.13694 9863 ft 293 kts 305°
2026-04-23 16:46 54.52463 -5.16499 9116 ft 298 kts 305°
2026-04-23 16:46 54.53731 -5.19340 8355 ft 300 kts 305°
2026-04-23 16:46 54.55008 -5.22204 7612 ft 303 kts 305°
2026-04-23 16:46 54.56294 -5.25089 6891 ft 304 kts 306°
2026-04-23 16:47 54.57581 -5.27979 6301 ft 301 kts 306°
2026-04-23 16:47 54.58829 -5.30778 6169 ft 288 kts 306°
2026-04-23 16:47 54.60029 -5.33474 5926 ft 281 kts 305°
2026-04-23 16:47 54.61212 -5.36137 5418 ft 279 kts 305°
2026-04-23 16:48 54.62381 -5.38778 4686 ft 284 kts 306°
2026-04-23 16:48 54.63589 -5.41506 3935 ft 288 kts 304°
2026-04-23 16:48 54.64829 -5.44310 3289 ft 289 kts 305°
2026-04-23 16:48 54.66008 -5.46980 3070 ft 279 kts 305°
2026-04-23 16:49 54.67163 -5.49593 2999 ft 274 kts 305°
2026-04-23 16:49 54.68334 -5.52247 2994 ft 280 kts 305°
2026-04-23 16:49 54.69509 -5.54913 2991 ft 278 kts 305°
2026-04-23 16:49 54.70669 -5.57550 2984 ft 269 kts 305°
2026-04-23 16:50 54.71754 -5.60010 2988 ft 245 kts 305°
2026-04-23 16:50 54.72740 -5.62245 2992 ft 226 kts 305°
2026-04-23 16:50 54.73695 -5.64420 2993 ft 225 kts 305°
2026-04-23 16:50 54.74627 -5.66578 2991 ft 222 kts 299°
2026-04-23 16:51 54.75020 -5.69095 3003 ft 216 kts 258°
2026-04-23 16:51 54.74518 -5.71350 2958 ft 193 kts 228°
2026-04-23 16:51 54.73613 -5.73004 2756 ft 190 kts 214°
2026-04-23 16:51 54.72568 -5.74357 2524 ft 182 kts 209°
2026-04-23 16:52 54.71565 -5.75546 2255 ft 169 kts 209°
2026-04-23 16:52 54.70644 -5.76661 2032 ft 151 kts 208°
2026-04-23 16:52 54.69829 -5.77642 1818 ft 135 kts 206°
2026-04-23 16:52 54.69082 -5.78537 1632 ft 130 kts 206°
2026-04-23 16:53 54.68326 -5.79440 1452 ft 132 kts 206°
2026-04-23 16:53 54.67577 -5.80342 1274 ft 132 kts 208°
2026-04-23 16:53 54.66828 -5.81254 1076 ft 130 kts 210°
2026-04-23 16:53 54.66075 -5.82141 883 ft 130 kts 211°
2026-04-23 16:54 54.65349 -5.83053 717 ft 129 kts 207°
2026-04-23 16:54 54.64598 -5.83956 594 ft 130 kts 204°
2026-04-23 16:54 54.63859 -5.84820 366 ft 128 kts 210°
2026-04-23 16:54 54.63115 -5.85715 222 ft 132 kts 207°
2026-04-23 16:55 54.62359 -5.86610 34 ft 129 kts 205°
2026-04-23 16:55 54.61753 -5.87317 21 ft 65 kts 214°
2026-04-23 16:55 54.61555 -5.87554 19 ft 27 kts 214°
2026-04-23 16:55 54.61397 -5.87743 18 ft 22 kts 216°
2026-04-23 16:56 54.61300 -5.87761 22 ft 13 kts 134°
2026-04-23 16:56 54.61256 -5.87623 20 ft 12 kts 84°
2026-04-23 16:56 54.61286 -5.87563 20 ft 0 kts 32°
2026-04-23 16:58 54.61292 -5.87556 20 ft 4 kts 33°
2026-04-23 16:58 54.61348 -5.87487 20 ft 15 kts 34°
2026-04-23 16:58 54.61413 -5.87377 20 ft 12 kts 51°
2026-04-23 16:59 54.61494 -5.87266 20 ft 17 kts 33°
2026-04-23 16:59 54.61576 -5.87168 20 ft 14 kts 35°
2026-04-23 16:59 54.61659 -5.87071 20 ft 10 kts 37°
2026-04-23 16:59 54.61668 -5.87006 20 ft 4 kts 110°
2026-04-23 17:00 54.61662 -5.86989 22 ft 3 kts 119°
2026-04-23 17:00 54.61657 -5.86975 22 ft 0 kts 122°